Regional Weather Roundup
Issued by NWS Newport/Morehead, NC

Current Version | Previous Version | Text Only | Print | Product List | Glossary Off
Versions: 1 2 3 4 5 6 7 8 9 10 11 12 13 14 15 16 17 18 19 20 21 22 23 24 25 26 27 28 29 30 31 32 33 34 35 36 37 38 39 40 41 42 43 44 45 46 47 48 49
000 ASUS42 KMHX 202014 RWRMHX WEATHER ROUNDUP FOR EASTERN NORTH CAROLINA NATIONAL WEATHER SERVICE NEWPORT/MOREHEAD CITY NC 400 PM EDT SUN AUG 20 2017 NOTE: "FAIR" INDICATES FEW OR NO CLOUDS BELOW 12,000 FEET WITH NO SIGNIFICANT WEATHER AND/OR OBSTRUCTIONS TO VISIBILITY NCZ015>017-031-032-045>047-102-103-202100- NORTH COAST CITY SKY/WX TMP DP RH WIND PRES REMARKS EDENTON SUNNY 90 77 66 SE8 30.09S HX 102 ELIZABETH CITY SUNNY 89 74 60 E10 30.09S KITTY HAWK CLEAR 83 75 78 E3 30.09S MANTEO MOSUNNY 83 76 79 N10 30.11R $$ NCZ045>047-081-094-103-104-202100- CENTRAL COAST CITY SKY/WX TMP DP RH WIND PRES REMARKS FRISCO CLOUDY 85 78 80 VRB5 30.09S $$ NCZ095-097-098-100-101-202100- SOUTHERN COAST CITY SKY/WX TMP DP RH WIND PRES REMARKS BEAUFORT SUNNY 87 75 67 SE6 30.08S CEDAR ISLAND NOT AVBL JACKSONVILLE SUNNY 90 74 59 VRB5 30.07S PINEY ISLAND PTCLDY N/A N/A N/A E7 30.09S WILMINGTON CLOUDY 86 74 67 SE9 30.08R $$ NCZ011>013-027>030-043-044-078>080-089-090>093-098-202100- COASTAL PLAIN CITY SKY/WX TMP DP RH WIND PRES REMARKS AHOSKIE N/A 87 71 60 CALM 30.09S CLINTON MOSUNNY 93 72 51 CALM 30.08S HX 100 ELIZABETHTOWN NOT AVBL GOLDSBORO MOSUNNY 92 71 50 VRB5 30.07S GREENVILLE CLOUDY 91 70 49 E6 30.09S HAVELOCK MOSUNNY 91 68 46 E9 30.09S KENANSVILLE PTSUNNY 90 72 55 SE5 30.08S KINSTON NOT AVBL NEW BERN MOSUNNY 88 76 67 SE7 30.09S RICHLANDS MOSUNNY 91 72 53 E5 30.08F ROCKY MOUNT SUNNY 92 69 47 CALM 30.08F WASHINGTON MOSUNNY 90 71 54 SE3 30.08S WHITEVILLE SUNNY 91 71 52 NE6 30.06F $$ AMZ130-135-150-152-154-156-158-170-250-252-270-ANZ085-086-088-633-658-670-202100- MARINE OBSERVATIONS STATION/POSITION TIME TEMP WIND PRES WAVE SWELL AIR SEA DIR/SP/G HT/PER HT/PER (UTC) (F) (DEG/KT/KT) (MB) (FT/S) (FT/S) CHESAPEAKE LIGHT NOT AVBL 64 E VA BEACH 1950 79 81 60/ 6/ 6 1020.0 2/ 8 2/ 8 DUCK 1936 82 79 80/ 8/ 9 1019.1 2 E DUCK 2000 80 N/A 2/ 9 OREGON INLET 1936 81 80 50/ 8/ 10 1019.0 13E OREGON INLT 1948 82 N/A 2/ 7 2/ 7 HATTERAS CG 1936 83 80 30/ 3/ 6 1018.8 DIAMOND BUOY 1950 81 83 30/ 2/ 4 1018.8 2/ 8 2/ 8 CAPE LOOKOUT 2000 82 110/ 4/ 5 1018.5 BEAUFORT LAB 1936 85 82 150/ 8/ 10 1018.2 30 SE NEW RVR IN 1908 83 84 70/ 4/ 6 1019.0 30 SE NEW RVR IN 1943 85 N/A 3/ 9 27 SE WRIGHTSVLE 1908 84 85 70/ 6/ 8 1018.8 5 SE WRIGHTSVLE 1908 84 84 120/ 6/ 8 1018.4 225 S CAPE HAT 1950 83 86 140/ 8/ 10 1019.4 3/ 8 3/ 8 41 SE CHARLESTON 2000 85 85 150/ 4/ 6 1017.5 $$

USA.gov is the U.S. government's official web portal to all federal, state and local government web resources and services.